Regional Weather Roundup
Issued by NWS Tiyan, Guam

Home | Current Version | Previous Version | Text Only | Print | Product List | Glossary On
Versions: 1 2 3 4 5 6 7 8 9 10 11 12 13 14 15 16 17 18 19 20 21 22 23 24 25 26 27 28 29 30 31 32 33 34 35 36 37 38 39 40 41 42 43 44 45 46 47 48 49 50
000
ASGM40 PGUM 160512
RWRGUM
WEATHER ROUNDUP FOR THE MARIANAS
NATIONAL WEATHER SERVICE TIYAN GU
300 PM CHST TUE SEP 16 2014

GUZ001>004-160600-
MARIANA ISLANDS-

CITY           SKY/WX    TMP DP  RH WIND       PRES   REMARKS
GUAM AIRPORT   PTSUNNY   81  77  89 SE9G18    29.75S
ANDERSEN AFB   LGT RAIN  77  73  88 SE15G24   29.75S
ROTA AIRPORT   LGT RAIN  75  75 100 S16G23    29.74F
TINIAN AP      PTSUNNY   81  79  94 S9        29.73S
SAIPAN AP      RAIN      81  77  89 S15G22    29.75S FOG

$$




USA.gov is the U.S. government's official web portal to all federal, state and local government web resources and services.